GW0401 Weather Reports


Display with metric or nautical units.
time (UTC)temp
F
wind
direction
speed
MPH
gust
MPH
rain 1hr
in
rain 24hr
in
rain mn
in
humidity
%
barometer
mb
20260502180411 69 309 6.0 6.0 0.00 0.00 0.00 68 1013.8
20260502170411 72 257 4.0 11.0 0.00 0.00 0.00 64 1014.1
20260502163910 72 239 8.0 11.0 0.00 0.00 0.00 61 1014.4
20260502163410 72 247 8.0 11.0 0.00 0.00 0.00 61 1014.5
20260502162908 73 240 6.0 10.0 0.00 0.00 0.00 62 1014.5
20260502162412 73 233 6.0 9.0 0.00 0.00 0.00 60 1014.5
20260502161909 73 237 6.0 11.0 0.00 0.00 0.00 62 1014.7
20260502161412 72 230 6.0 11.0 0.00 0.00 0.00 61 1014.6
20260502160908 72 254 6.0 10.0 0.00 0.00 0.00 62 1014.7
20260502160410 72 242 5.0 11.0 0.00 0.00 0.00 62 1014.7
20260502151903 73 284 5.0 12.0 0.00 0.00 0.00 61 1015.2
20260502151404 73 294 7.0 12.0 0.00 0.00 0.00 62 1015.2
20260502150855 72 227 9.0 12.0 0.00 0.00 0.00 60 1015.3
20260502150355 72 274 7.0 14.0 0.00 0.00 0.00 60 1015.3
20260502130337 75 249 9.0 22.0 0.00 0.00 0.00 52 1015.8
20260502123340 74 251 13.0 20.0 0.00 0.00 0.00 50 1016.0
20260502122838 74 215 12.0 21.0 0.00 0.00 0.00 49 1016.1
20260502122339 74 218 9.0 21.0 0.00 0.00 0.00 54 1016.1
20260502121840 73 185 12.0 19.0 0.00 0.00 0.00 49 1016.2
20260502121337 74 222 12.0 19.0 0.00 0.00 0.00 51 1016.2
20260502120837 75 232 12.0 17.0 0.00 0.00 0.00 53 1016.2
20260502120335 75 233 14.0 18.0 0.00 0.00 0.00 50 1016.3
20260502115837 74 237 13.0 18.0 0.00 0.00 0.00 52 1016.3
20260502114835 74 218 12.0 17.0 0.00 0.00 0.00 49 1016.4
20260502114335 74 205 13.0 17.0 0.00 0.00 0.00 51 1016.5
20260502113835 74 227 10.0 18.0 0.00 0.00 0.00 50 1016.5
20260502113334 74 199 12.0 18.0 0.00 0.00 0.00 47 1016.6
20260502112836 74 237 8.0 16.0 0.00 0.00 0.00 48 1016.7
20260502112328 74 202 9.0 14.0 0.00 0.00 0.00 52 1016.7
20260502111828 73 202 7.0 14.0 0.00 0.00 0.00 48 1016.6
20260502110330 73 192 9.0 17.0 0.00 0.00 0.00 51 1016.8
20260502105826 73 215 13.0 17.0 0.00 0.00 0.00 47 1016.8
20260502105329 73 211 11.0 20.0 0.00 0.00 0.00 49 1016.9
20260502104828 72 202 15.0 20.0 0.00 0.00 0.00 47 1016.9
20260502103829 73 201 13.0 18.0 0.00 0.00 0.00 47 1016.9
20260502103325 73 188 12.0 18.0 0.00 0.00 0.00 45 1016.9
20260502102827 72 187 9.0 13.0 0.00 0.00 0.00 46 1016.9
20260502102328 72 167 7.0 11.0 0.00 0.00 0.00 45 1017.0
20260502101825 72 156 8.0 11.0 0.00 0.00 0.00 49 1017.0
20260502101325 71 153 6.0 14.0 0.00 0.00 0.00 47 1017.0
20260502100824 71 208 9.0 14.0 0.00 0.00 0.00 44 1017.1
20260502100324 71 195 6.0 11.0 0.00 0.00 0.00 49 1017.2
20260502091322 69 208 9.0 13.0 0.00 0.00 0.00 47 1017.6
20260502090822 70 234 10.0 13.0 0.00 0.00 0.00 44 1017.4
20260502090322 70 209 8.0 11.0 0.00 0.00 0.00 50 1017.4
20260502071316 63 182 9.0 12.0 0.00 0.00 0.00 58 1017.9
20260502065817 62 177 9.0 11.0 0.00 0.00 0.00 57 1017.9
20260502065314 62 178 8.0 12.0 0.00 0.00 0.00 59 1018.0
20260502064816 61 172 9.0 13.0 0.00 0.00 0.00 57 1017.9
20260502063817 60 163 10.0 14.0 0.00 0.00 0.00 61 1018.0
20260502063316 60 172 9.0 13.0 0.00 0.00 0.00 61 1017.9
20260502062816 59 191 9.0 13.0 0.00 0.00 0.00 65 1018.1
20260502062314 59 189 9.0 13.0 0.00 0.00 0.00 65 1018.1
20260502061814 58 177 9.0 11.0 0.00 0.00 0.00 64 1018.0
20260502061313 58 178 7.0 10.0 0.00 0.00 0.00 67 1018.1
20260502060819 57 187 7.0 9.0 0.00 0.00 0.00 66 1018.1
20260502055815 56 164 6.0 7.0 0.00 0.00 0.00 67 1018.1
20260502055313 55 174 6.0 6.0 0.00 0.00 0.00 67 1018.1
20260502054814 55 179 4.0 5.0 0.00 0.00 0.00 69 1018.2
20260502054314 54 174 4.0 6.0 0.00 0.00 0.00 68 1018.2
20260502053815 54 163 4.0 6.0 0.00 0.00 0.00 69 1018.1
20260502052812 53 156 5.0 6.0 0.00 0.00 0.00 70 1018.1
20260502052313 52 157 5.0 6.0 0.00 0.00 0.00 71 1018.1
20260502051813 51 146 5.0 6.0 0.00 0.00 0.00 71 1018.1
20260502051312 51 146 5.0 6.0 0.00 0.00 0.00 72 1018.1
20260502050813 50 146 5.0 6.0 0.00 0.00 0.00 73 1018.2
20260502045814 47 140 6.0 6.0 0.00 0.00 0.00 76 1018.1
20260502045312 46 151 5.0 5.0 0.00 0.00 0.00 78 1018.2
20260502044813 46 147 4.0 5.0 0.00 0.00 0.00 79 1018.2
20260502044314 45 147 4.0 5.0 0.00 0.00 0.00 79 1018.2
20260502043814 45 147 3.0 5.0 0.00 0.00 0.00 79 1018.1
20260502043310 45 147 4.0 5.0 0.00 0.00 0.00 79 1018.3
20260502042811 44 147 4.0 5.0 0.00 0.00 0.00 79 1018.2
20260502042311 44 147 4.0 5.0 0.00 0.00 0.00 78 1018.2
20260502041312 44 147 3.0 6.0 0.00 0.00 0.00 79 1018.2
20260502040310 44 147 5.0 6.0 0.00 0.00 0.00 80 1018.3
20260502035810 44 147 4.0 6.0 0.00 0.00 0.00 81 1018.3
20260502035310 44 147 5.0 6.0 0.00 0.00 0.00 81 1018.3
20260502034810 44 147 5.0 5.0 0.00 0.00 0.00 81 1018.5
20260502034309 44 147 4.0 5.0 0.00 0.00 0.00 80 1018.4
20260502033813 44 147 4.0 5.0 0.00 0.00 0.00 80 1018.5
20260502033310 44 147 5.0 5.0 0.00 0.00 0.00 79 1018.5
20260502031809 45 150 4.0 5.0 0.00 0.00 0.00 77 1018.5
20260502031309 45 144 4.0 5.0 0.00 0.00 0.00 76 1018.5
20260502030807 46 146 5.0 5.0 0.00 0.00 0.00 76 1018.5
20260502030309 46 144 4.0 5.0 0.00 0.00 0.00 75 1018.6
20260502024810 47 140 5.0 6.0 0.00 0.00 0.00 73 1018.7
20260502023810 48 140 5.0 6.0 0.00 0.00 0.00 72 1018.7
20260502022307 49 140 6.0 7.0 0.00 0.00 0.00 70 1018.9
20260502021808 49 140 6.0 7.0 0.00 0.00 0.00 70 1018.9
20260502021307 49 140 5.0 6.0 0.00 0.00 0.00 70 1018.9
20260502020807 49 141 6.0 6.0 0.00 0.00 0.00 70 1019.0
20260502020308 50 140 6.0 7.0 0.00 0.00 0.00 70 1019.0
20260502015809 50 140 6.0 7.0 0.00 0.00 0.00 68 1019.0
20260502015253 50 140 6.0 6.0 0.00 0.00 0.00 68 1019.1
20260502014753 51 140 6.0 6.0 0.00 0.00 0.00 68 1019.2
20260502014252 51 140 6.0 6.0 0.00 0.00 0.00 69 1019.3
20260502013252 51 140 5.0 7.0 0.00 0.00 0.00 68 1019.3
20260502012753 51 144 5.0 7.0 0.00 0.00 0.00 68 1019.4
20260502012251 51 140 5.0 7.0 0.00 0.00 0.00 67 1019.3
20260502011752 51 140 5.0 6.0 0.00 0.00 0.00 67 1019.4
20260502011253 51 140 5.0 6.0 0.00 0.00 0.00 68 1019.5
20260502010751 51 140 5.0 6.0 0.00 0.00 0.00 68 1019.6
20260502010253 51 140 5.0 6.0 0.00 0.00 0.00 67 1019.6
20260502005751 52 140 5.0 6.0 0.00 0.00 0.00 68 1019.7
20260502005252 52 140 5.0 6.0 0.00 0.00 0.00 68 1019.7
20260502004752 51 140 4.0 6.0 0.00 0.00 0.00 69 1019.8
20260502004249 50 140 5.0 6.0 0.00 0.00 0.00 72 1019.9
20260502003751 49 140 5.0 6.0 0.00 0.00 0.00 73 1019.9
20260502003250 49 140 4.0 5.0 0.00 0.00 0.00 73 1020.0
20260502002248 50 140 4.0 5.0 0.00 0.00 0.00 70 1020.0
20260502000747 50 140 5.0 6.0 0.00 0.00 0.00 73 1020.2
20260501235741 49 140 4.0 5.0 0.00 0.00 0.00 74 1020.3
20260501235241 49 140 3.0 4.0 0.00 0.00 0.00 74 1020.3
20260501234244 50 140 3.0 4.0 0.00 0.00 0.00 74 1020.4
20260501231740 47 140 4.0 5.0 0.00 0.00 0.00 78 1020.4
20260501231239 48 140 4.0 4.0 0.00 0.00 0.00 77 1020.4
20260501230741 48 140 4.0 4.0 0.00 0.00 0.00 78 1020.4
20260501230240 48 140 2.0 3.0 0.00 0.00 0.00 79 1020.4
20260501225740 48 140 2.0 3.0 0.00 0.00 0.00 79 1020.5
20260501225238 48 140 2.0 4.0 0.00 0.00 0.00 79 1020.6
20260501224736 48 140 3.0 4.0 0.00 0.00 0.00 78 1020.5
20260501224237 48 140 3.0 4.0 0.00 0.00 0.00 78 1020.5
20260501223737 48 140 3.0 4.0 0.00 0.00 0.00 77 1020.6
20260501223239 49 140 4.0 5.0 0.00 0.00 0.00 77 1020.6
20260501222737 49 140 4.0 5.0 0.00 0.00 0.00 76 1020.6
20260501222237 49 140 4.0 5.0 0.00 0.00 0.00 76 1020.7
20260501221238 49 140 4.0 5.0 0.00 0.00 0.00 75 1020.7
20260501220737 49 140 4.0 5.0 0.00 0.00 0.00 76 1020.7
20260501220239 49 148 4.0 4.0 0.00 0.00 0.00 76 1020.9
20260501215737 49 148 4.0 4.0 0.00 0.00 0.00 76 1020.9
20260501215235 49 150 3.0 3.0 0.00 0.00 0.00 76 1021.0
20260501214737 50 150 2.0 3.0 0.00 0.00 0.00 75 1020.9
20260501214234 51 150 2.0 3.0 0.00 0.00 0.00 75 1021.0
20260501213735 51 150 2.0 4.0 0.00 0.00 0.00 74 1021.0
20260501213235 52 147 2.0 4.0 0.00 0.00 0.00 70 1021.0
20260501212734 54 147 2.0 5.0 0.00 0.00 0.00 68 1021.0
20260501211733 56 141 5.0 6.0 0.00 0.00 0.00 65 1021.0
20260501211232 55 140 5.0 6.0 0.00 0.00 0.00 67 1021.0
20260501210735 53 140 5.0 6.0 0.00 0.00 0.00 71 1021.0
20260501210235 53 141 5.0 6.0 0.00 0.00 0.00 71 1020.9
20260501205728 54 143 5.0 5.0 0.00 0.00 0.00 71 1020.9
20260501205232 54 143 5.0 5.0 0.00 0.00 0.00 70 1021.1
20260501204729 55 147 4.0 5.0 0.00 0.00 0.00 68 1021.0
20260501204230 56 151 4.0 5.0 0.00 0.00 0.00 67 1021.0
20260501203727 57 140 4.0 5.0 0.00 0.00 0.00 64 1021.1
20260501202727 59 140 4.0 4.0 0.00 0.00 0.00 59 1021.1
20260501202227 60 138 3.0 4.0 0.00 0.00 0.00 57 1021.2
20260501201728 61 130 3.0 6.0 0.00 0.00 0.00 55 1021.3
20260501201227 62 135 5.0 6.0 0.00 0.00 0.00 52 1021.2
20260501200240 63 127 5.0 6.0 0.00 0.00 0.00 50 1021.2
20260501195726 63 124 5.0 7.0 0.00 0.00 0.00 50 1021.1
20260501194723 64 121 6.0 6.0 0.00 0.00 0.00 49 1021.3
20260501194223 65 127 5.0 6.0 0.00 0.00 0.00 48 1021.2
20260501193219 64 125 5.0 6.0 0.00 0.00 0.00 49 1021.2
20260501192718 65 125 5.0 6.0 0.00 0.00 0.00 48 1021.2
20260501191720 65 124 6.0 7.0 0.00 0.00 0.00 48 1021.2
20260501191219 65 120 6.0 9.0 0.00 0.00 0.00 48 1021.2
20260501190717 66 125 6.0 9.0 0.00 0.00 0.00 46 1021.2
20260501190217 66 133 7.0 10.0 0.00 0.00 0.00 46 1021.2
20260501185717 67 140 7.0 10.0 0.00 0.00 0.00 45 1021.2
20260501184216 68 138 7.0 10.0 0.00 0.00 0.00 45 1021.3
20260501183713 68 133 8.0 10.0 0.00 0.00 0.00 43 1021.3
20260501183214 68 140 7.0 10.0 0.00 0.00 0.00 44 1021.3
20260501182713 69 140 6.0 9.0 0.00 0.00 0.00 44 1021.3
20260501182213 69 140 6.0 11.0 0.00 0.00 0.00 44 1021.3
20260501181719 69 146 6.0 11.0 0.00 0.00 0.00 43 1021.4